Tahlequah, OK

4:48 AM CDT on June 24, 2017 (GMT -0500)
Tahlequah Municipal

Weather History for KTQH - November, 2012

Change the Weather History Date:

Friday, November 9, 2012

  Actual Average (KMKO) Record (KMKO)
Temperature  
Mean Temperature 64 °F -  
Max Temperature 73 °F 59 °F 80 °F (2002)
Min Temperature 55 °F 41 °F 28 °F (2000)
Degree Days  
Heating Degree Days 1    
Growing Degree Days 14 (Base 50)    
Moisture  
Dew Point 53 °F    
Average Humidity 68    
Maximum Humidity 88    
Minimum Humidity 57    
Precipitation  
Precipitation 0.00 in - - ()
Sea Level Pressure  
Sea Level Pressure 29.96 in    
Wind  
Wind Speed 11 mph (SSE)    
Max Wind Speed 20 mph    
Max Gust Speed 26 mph    
Visibility 10 miles    
Events      
Averages and records for this station are not official NWS values.
T = Trace of Precipitation, MM = Missing Value Source: NWS Daily Summary

Daily Weather History Graph

Daily Weather History Graph

Search for Another Location

Airport or City:

Trip Planner

Search our weather history database for the weather conditions in past years. The results will help you decide how hot, cold, wet, or windy it might be!

Date:

Astronomy

Nov. 09, 2012 Rise Set
Actual Time 6:50 AM CST 5:16 PM CST
Civil Twilight 6:23 AM CST 5:43 PM CST
Nautical Twilight 5:53 AM CST 6:14 PM CST
Astronomical Twilight 5:23 AM CST 6:44 PM CST
Moon 1:59 AM CST (11/9) 2:22 PM CST (11/9)
Length of Visible Light 11h 19m
Length of Day
10h 25m
Waning Crescent, 23% of the Moon is Illuminated
Nov 9
Waning Crescent
Nov 13
New
Nov 20
First Quarter
Nov 28
Full
Dec 6
Last Quarter

Hourly Weather History & Observations

Time (CST) Temp. Dew Point Humidity Pressure Visibility Wind Dir Wind Speed Gust Speed Precip Events Conditions
12:15 AM 55.4 °F 42.8 °F 63% 29.98 in 10.0 mi SSE 10.4 mph - N/A   Clear
12:35 AM 55.4 °F 42.8 °F 63% 29.98 in 10.0 mi SSE 8.1 mph - N/A   Clear
12:55 AM 55.4 °F 42.8 °F 63% 29.98 in 10.0 mi SSE 9.2 mph - N/A   Clear
1:15 AM 55.4 °F 42.8 °F 63% 29.98 in 10.0 mi SSE 8.1 mph 16.1 mph N/A   Clear
1:35 AM 55.4 °F 42.8 °F 63% 29.98 in 10.0 mi SSE 6.9 mph - N/A   Clear
1:55 AM 55.4 °F 42.8 °F 63% 29.98 in 10.0 mi SSE 6.9 mph - N/A   Clear
2:15 AM 55.4 °F 44.6 °F 67% 29.98 in 10.0 mi SSE 6.9 mph - N/A   Clear
2:35 AM 55.4 °F 44.6 °F 67% 29.98 in 10.0 mi SSE 8.1 mph - N/A   Clear
2:55 AM 55.4 °F 44.6 °F 67% 29.98 in 10.0 mi SSE 5.8 mph - N/A   Clear
3:15 AM 55.4 °F 44.6 °F 67% 29.98 in 10.0 mi SSE 8.1 mph - N/A   Clear
3:35 AM 55.4 °F 44.6 °F 67% 29.98 in 10.0 mi SSE 6.9 mph - N/A   Clear
3:55 AM 55.4 °F 46.4 °F 72% 29.98 in 10.0 mi SSE 6.9 mph - N/A   Clear
4:15 AM 55.4 °F 46.4 °F 72% 29.98 in 10.0 mi SSE 8.1 mph - N/A   Clear
4:35 AM 55.4 °F 46.4 °F 72% 29.99 in 10.0 mi SSE 10.4 mph 17.3 mph N/A   Clear
4:55 AM 55.4 °F 48.2 °F 77% 29.99 in 10.0 mi SSE 8.1 mph - N/A   Clear
5:15 AM 55.4 °F 50.0 °F 82% 29.99 in 10.0 mi SSE 8.1 mph 17.3 mph N/A   Clear
5:35 AM 57.2 °F 50.0 °F 77% 29.99 in 10.0 mi SSE 9.2 mph 16.1 mph N/A   Clear
5:55 AM 55.4 °F 50.0 °F 82% 29.99 in 10.0 mi SSE 8.1 mph 17.3 mph N/A   Clear
6:15 AM 57.2 °F 50.0 °F 77% 29.99 in 10.0 mi SSE 10.4 mph 17.3 mph N/A   Clear
6:35 AM 55.4 °F 51.8 °F 88% 30.00 in 10.0 mi SSE 8.1 mph - N/A   Scattered Clouds
6:55 AM 57.2 °F 51.8 °F 82% 30.00 in 10.0 mi SSE 10.4 mph - N/A   Scattered Clouds
7:15 AM 57.2 °F 51.8 °F 82% 30.01 in 10.0 mi South 9.2 mph - N/A   Mostly Cloudy
7:35 AM 59.0 °F 53.6 °F 82% 30.01 in 10.0 mi SSE 11.5 mph 19.6 mph N/A   Mostly Cloudy
7:55 AM 59.0 °F 53.6 °F 82% 30.01 in 10.0 mi South 11.5 mph 20.7 mph N/A   Scattered Clouds
8:15 AM 60.8 °F 53.6 °F 77% 30.01 in 10.0 mi South 13.8 mph 21.9 mph N/A   Scattered Clouds
8:35 AM 60.8 °F 55.4 °F 82% 30.02 in 10.0 mi South 13.8 mph 23.0 mph N/A   Scattered Clouds
8:55 AM 60.8 °F 55.4 °F 82% 30.02 in 10.0 mi South 13.8 mph 23.0 mph N/A   Clear
9:15 AM 62.6 °F 55.4 °F 77% 30.02 in 10.0 mi South 16.1 mph 23.0 mph N/A   Scattered Clouds
9:35 AM 62.6 °F 55.4 °F 77% 30.02 in 10.0 mi South 15.0 mph 20.7 mph N/A   Scattered Clouds
9:55 AM 62.6 °F 55.4 °F 77% 30.02 in 10.0 mi South 9.2 mph 23.0 mph N/A   Scattered Clouds
10:15 AM 64.4 °F 55.4 °F 73% 30.02 in 10.0 mi South 17.3 mph 26.5 mph N/A   Scattered Clouds
10:35 AM 66.2 °F 55.4 °F 68% 30.02 in 10.0 mi South 17.3 mph 26.5 mph N/A   Clear
10:55 AM 68.0 °F 55.4 °F 64% 30.01 in 10.0 mi South 12.7 mph 21.9 mph N/A   Scattered Clouds
11:15 AM 69.8 °F 57.2 °F 64% 30.00 in 10.0 mi South 12.7 mph 25.3 mph N/A   Scattered Clouds
11:35 AM 69.8 °F 57.2 °F 64% 29.99 in 10.0 mi South 17.3 mph 25.3 mph N/A   Scattered Clouds
11:55 AM 71.6 °F 57.2 °F 60% 29.99 in 10.0 mi South 16.1 mph 24.2 mph N/A   Scattered Clouds
12:15 PM 71.6 °F 57.2 °F 60% 29.97 in 10.0 mi SSE 17.3 mph 24.2 mph N/A   Scattered Clouds
12:35 PM 71.6 °F 57.2 °F 60% 29.96 in 10.0 mi South 16.1 mph 24.2 mph N/A   Scattered Clouds
12:55 PM 71.6 °F 57.2 °F 60% 29.95 in 10.0 mi South 16.1 mph 24.2 mph N/A   Mostly Cloudy
1:15 PM 71.6 °F 57.2 °F 60% 29.94 in 10.0 mi South 18.4 mph 25.3 mph N/A   Scattered Clouds
1:35 PM 69.8 °F 57.2 °F 64% 29.93 in 10.0 mi South 17.3 mph 25.3 mph N/A   Clear
1:55 PM 71.6 °F 57.2 °F 60% 29.93 in 10.0 mi South 19.6 mph 26.5 mph N/A   Scattered Clouds
2:15 PM 71.6 °F 57.2 °F 60% 29.92 in 10.0 mi South 15.0 mph 25.3 mph N/A   Scattered Clouds
2:35 PM 73.4 °F 57.2 °F 57% 29.91 in 10.0 mi South 13.8 mph 24.2 mph N/A   Scattered Clouds
2:55 PM 71.6 °F 57.2 °F 60% 29.90 in 10.0 mi SSE 17.3 mph 25.3 mph N/A   Scattered Clouds
3:15 PM 71.6 °F 57.2 °F 60% 29.91 in 10.0 mi SSE 13.8 mph 23.0 mph N/A   Scattered Clouds
3:35 PM 71.6 °F 57.2 °F 60% 29.90 in 10.0 mi South 15.0 mph 21.9 mph N/A   Scattered Clouds
3:55 PM 71.6 °F 57.2 °F 60% 29.90 in 10.0 mi SSE 16.1 mph 21.9 mph N/A   Clear
4:15 PM 71.6 °F 59.0 °F 64% 29.90 in 10.0 mi SSE 17.3 mph 23.0 mph N/A   Clear
4:35 PM 69.8 °F 57.2 °F 64% 29.90 in 10.0 mi SSE 11.5 mph 21.9 mph N/A   Clear
4:55 PM 69.8 °F 57.2 °F 64% 29.90 in 10.0 mi SSE 11.5 mph - N/A   Scattered Clouds
5:15 PM 69.8 °F 57.2 °F 64% 29.90 in 10.0 mi SSE 10.4 mph - N/A   Clear
5:35 PM 68.0 °F 57.2 °F 68% 29.90 in 10.0 mi SSE 10.4 mph 16.1 mph N/A   Clear
5:55 PM 68.0 °F 57.2 °F 68% 29.91 in 10.0 mi SSE 9.2 mph - N/A   Clear
6:15 PM 68.0 °F 57.2 °F 68% 29.91 in 10.0 mi SSE 8.1 mph - N/A   Clear
6:35 PM 68.0 °F 57.2 °F 68% 29.92 in 10.0 mi SSE 10.4 mph - N/A   Clear
6:55 PM 68.0 °F 57.2 °F 68% 29.92 in 10.0 mi SSE 10.4 mph 16.1 mph N/A   Clear
7:15 PM 68.0 °F 55.4 °F 64% 29.92 in 10.0 mi South 13.8 mph 21.9 mph N/A   Clear
7:35 PM 68.0 °F 55.4 °F 64% 29.93 in 10.0 mi SSE 12.7 mph 19.6 mph N/A   Clear
7:55 PM 68.0 °F 55.4 °F 64% 29.93 in 10.0 mi South 13.8 mph 19.6 mph N/A   Clear
8:15 PM 68.0 °F 55.4 °F 64% 29.93 in 10.0 mi SSE 6.9 mph - N/A   Clear
8:35 PM 68.0 °F 55.4 °F 64% 29.94 in 10.0 mi SSE 10.4 mph - N/A   Clear
8:55 PM 68.0 °F 55.4 °F 64% 29.94 in 10.0 mi SSE 11.5 mph 17.3 mph N/A   Clear
9:15 PM 68.0 °F 55.4 °F 64% 29.94 in 10.0 mi SSE 12.7 mph 21.9 mph N/A   Clear
9:35 PM 68.0 °F 55.4 °F 64% 29.94 in 10.0 mi SSE 11.5 mph 18.4 mph N/A   Clear
9:55 PM 66.2 °F 55.4 °F 68% 29.94 in 10.0 mi SSE 11.5 mph 18.4 mph N/A   Clear